Dallas/Ft Worth, TX

10:02 PM CDT on October 17, 2017 (GMT -0500)
Dallas-Fort Worth International

Weather History for KDFW - November, 2011

Change the Weather History Date:

Saturday, November 19, 2011

  Actual Average Record
Temperature  
Mean Temperature 71 °F 55 °F  
Max Temperature 78 °F 65 °F 87 °F (1950)
Min Temperature 63 °F 45 °F 20 °F (1903)
Degree Days  
Heating Degree Days 0 10  
Month to date heating degree days 117 142  
Since 1 July heating degree days 176 214  
Cooling Degree Days 6 1  
Month to date cooling degree days 49 27  
Year to date cooling degree days 3640 2750  
Growing Degree Days 20 (Base 50)    
Moisture  
Dew Point 61 °F    
Average Humidity 71    
Maximum Humidity 84    
Minimum Humidity 58    
Precipitation  
Precipitation 0.00 in 0.08 in 2.77 in (1907)
Month to date precipitation 0.30 1.88  
Year to date precipitation 20.97 32.76  
Snow  
Snow 0.00 in 0.00 in T in (1930)
Month to date snowfall 0.0 0.0  
Since 1 July snowfall 0.0 0.0  
Since 1 September snowfall 0.0 0.0  
Snow Depth 0.00 in    
Sea Level Pressure  
Sea Level Pressure 29.86 in    
Wind  
Wind Speed 17 mph (South)    
Max Wind Speed 24 mph    
Max Gust Speed 32 mph    
Visibility 10 miles    
Events      
T = Trace of Precipitation, MM = Missing Value Source: NWS Daily Summary

Daily Weather History Graph

Daily Weather History Graph

Search for Another Location

Airport or City:

Trip Planner

Search our weather history database for the weather conditions in past years. The results will help you decide how hot, cold, wet, or windy it might be!

Date:

Astronomy

Nov. 19, 2011 Rise Set
Actual Time 7:01 AM CST 5:24 PM CST
Civil Twilight 6:35 AM CST 5:51 PM CST
Nautical Twilight 6:05 AM CST 6:21 PM CST
Astronomical Twilight 5:36 AM CST 6:50 PM CST
Moon 12:43 AM CST (11/19) 1:25 PM CST (11/19)
Length of Visible Light 11h 15m
Length of Day
10h 22m
Last Quarter, 38% of the Moon is Illuminated
Nov 19
Last Quarter
Nov 25
New
Dec 2
First Quarter
Dec 10
Full
Dec 17
Last Quarter

Hourly Weather History & Observations

Time (CST) Temp. Dew Point Humidity Pressure Visibility Wind Dir Wind Speed Gust Speed Precip Events Conditions
12:01 AM 62.6 °F 53.6 °F 72% 29.90 in 10.0 mi South 18.4 mph - N/A   Mostly Cloudy
12:22 AM 62.6 °F 55.4 °F 77% 29.89 in 10.0 mi South 20.7 mph 29.9 mph N/A   Mostly Cloudy
12:53 AM 64.0 °F 55.0 °F 73% 29.87 in 10.0 mi South 20.7 mph 29.9 mph N/A   Mostly Cloudy
1:53 AM 64.0 °F 55.0 °F 73% 29.86 in 10.0 mi South 19.6 mph 32.2 mph N/A   Mostly Cloudy
2:22 AM 62.6 °F 55.4 °F 77% 29.87 in 10.0 mi South 21.9 mph 28.8 mph N/A   Mostly Cloudy
2:53 AM 63.0 °F 55.9 °F 78% 29.85 in 10.0 mi South 20.7 mph 29.9 mph N/A   Mostly Cloudy
3:53 AM 64.0 °F 57.0 °F 78% 29.83 in 10.0 mi South 19.6 mph 28.8 mph N/A   Mostly Cloudy
4:53 AM 64.0 °F 57.9 °F 80% 29.84 in 10.0 mi South 20.7 mph 25.3 mph N/A   Overcast
5:20 AM 64.4 °F 59.0 °F 83% 29.86 in 10.0 mi South 23.0 mph 29.9 mph N/A   Overcast
5:45 AM 64.4 °F 59.0 °F 83% 29.85 in 10.0 mi South 19.6 mph 25.3 mph N/A   Mostly Cloudy
5:53 AM 64.4 °F 59.0 °F 83% 29.86 in 10.0 mi South 20.7 mph 27.6 mph N/A   Mostly Cloudy
6:53 AM 66.0 °F 60.1 °F 81% 29.85 in 10.0 mi South 19.6 mph 24.2 mph N/A   Overcast
7:24 AM 66.2 °F 60.8 °F 83% 29.86 in 10.0 mi South 19.6 mph - N/A   Overcast
7:53 AM 66.9 °F 60.1 °F 79% 29.86 in 10.0 mi South 19.6 mph 27.6 mph N/A   Overcast
8:24 AM 66.2 °F 60.8 °F 83% 29.88 in 10.0 mi South 16.1 mph - N/A   Mostly Cloudy
8:40 AM 68.0 °F 60.8 °F 78% 29.88 in 10.0 mi South 18.4 mph - N/A   Mostly Cloudy
8:53 AM 69.1 °F 61.0 °F 75% 29.87 in 10.0 mi South 18.4 mph 25.3 mph N/A   Mostly Cloudy
9:53 AM 70.0 °F 62.1 °F 76% 29.88 in 10.0 mi South 15.0 mph 25.3 mph N/A   Overcast
10:26 AM 71.6 °F 62.6 °F 73% 29.89 in 10.0 mi South 20.7 mph 27.6 mph N/A   Overcast
10:42 AM 71.6 °F 62.6 °F 73% 29.88 in 10.0 mi South 21.9 mph 28.8 mph N/A   Overcast
10:53 AM 72.0 °F 62.1 °F 71% 29.86 in 10.0 mi South 21.9 mph 28.8 mph N/A   Overcast
11:53 AM 73.0 °F 63.0 °F 71% 29.85 in 10.0 mi SSW 19.6 mph 26.5 mph N/A   Overcast
12:53 PM 73.9 °F 63.0 °F 68% 29.82 in 10.0 mi South 17.3 mph - N/A   Overcast
1:22 PM 75.2 °F 62.6 °F 65% 29.82 in 10.0 mi SSW 19.6 mph 26.5 mph N/A   Mostly Cloudy
1:53 PM 77.0 °F 63.0 °F 62% 29.79 in 10.0 mi South 24.2 mph 28.8 mph N/A   Mostly Cloudy
2:53 PM 77.0 °F 64.4 °F 65% 29.82 in 10.0 mi SSW 18.4 mph - N/A   Overcast
3:53 PM 78.1 °F 63.0 °F 60% 29.80 in 10.0 mi South 18.4 mph - N/A   Mostly Cloudy
4:53 PM 77.0 °F 63.0 °F 62% 29.81 in 10.0 mi South 17.3 mph - N/A   Overcast
5:53 PM 75.9 °F 63.0 °F 64% 29.82 in 10.0 mi SSW 12.7 mph - N/A   Overcast
6:53 PM 73.4 °F 62.6 °F 69% 29.85 in 10.0 mi South 9.2 mph - N/A   Mostly Cloudy
7:53 PM 73.4 °F 64.4 °F 73% 29.88 in 10.0 mi South 5.8 mph - N/A   Overcast
8:53 PM 73.0 °F 66.0 °F 79% 29.87 in 10.0 mi SSE 9.2 mph - N/A   Mostly Cloudy
9:53 PM 73.0 °F 66.9 °F 81% 29.88 in 10.0 mi South 11.5 mph - N/A   Mostly Cloudy
10:53 PM 71.6 °F 66.2 °F 83% 29.91 in 10.0 mi South 11.5 mph - N/A   Scattered Clouds
11:53 PM 71.1 °F 68.0 °F 90% 29.90 in 10.0 mi South 11.5 mph - N/A   Scattered Clouds